Terminal Aerodrome Forecast
Issued by NWS Buffalo, NY

Home | Current Version | Previous Version | Text Only | Print | Product List | Glossary On
Versions: 1 2 3 4 5 6 7 8 9 10 11 12 13 14 15 16 17 18 19 20 21 22 23 24 25 26 27
000
FTUS41 KBUF 271700
TAFROC
TAF
KROC 271735Z 2718/2818 32010KT P6SM VCSH OVC025
      TEMPO 2718/2720 BKN035
     FM280800 31006KT P6SM SCT025 BKN045
     FM281300 35006KT P6SM BKN050=

USA.gov is the U.S. government's official web portal to all federal, state and local government web resources and services.